{"data":{"norad_id":65289,"epoch":"2026-05-25T02:48:06.014592Z","epoch_age_seconds":68920,"freshness":"FRESH","line1":"1 65289U 25184S   26145.11673628  .00003541  00000+0  24932-3 0  9997","line2":"2 65289  97.4496 197.6694 0002657 123.9262 236.2218 15.05657530 42803","mean_motion":15.0565753,"eccentricity":0.0002657,"inclination_deg":97.4496,"raan_deg":197.6694,"arg_perigee_deg":123.9262,"mean_anomaly_deg":236.2218,"bstar":0.00024932,"rev_number":4280,"period_min":95.639278608064,"perigee_km":547.64738662937,"apogee_km":551.32872658445,"semimajor_km":6927.6250566069,"source":"CELESTRAK","updated_at":"2026-05-25T13:38:20.732766Z"}}